Weather History for KHQZ - November, 2012

Change the Weather History Date:

Thursday, November 22, 2012

  Actual Average (KDFW) Record (KDFW)
Temperature  
Mean Temperature 62 °F 54 °F  
Max Temperature 73 °F 64 °F 89 °F (1955)
Min Temperature 50 °F 44 °F 23 °F (1898)
Degree Days  
Heating Degree Days 4 12  
Month to date heating degree days 176  
Since 1 July heating degree days 248  
Cooling Degree Days 0 0  
Month to date cooling degree days 27  
Year to date cooling degree days 2750  
Growing Degree Days 12 (Base 50)    
Moisture  
Dew Point 45 °F    
Average Humidity 58    
Maximum Humidity 76    
Minimum Humidity 29    
Precipitation  
Precipitation 0.00 in 0.07 in 1.89 in (1913)
Month to date precipitation 2.11  
Year to date precipitation 32.99  
Snow  
Snow 0.00 in 0.00 in 5.00 in (1937)
Month to date snowfall 0.0  
Since 1 July snowfall 0.0  
Since 1 September snowfall 0.0  
Snow Depth -    
Sea Level Pressure  
Sea Level Pressure 30.10 in    
Wind  
Wind Speed 8 mph (SSE)    
Max Wind Speed 22 mph    
Max Gust Speed 29 mph    
Visibility 10 miles    
Events      
T = Trace of Precipitation, MM = Missing Value Source: NWS Daily Summary

Daily Weather History Graph

Daily Weather History Graph

Search for Another Location

Airport or City:

Trip Planner

Search our weather history database for the weather conditions in past years. The results will help you decide how hot, cold, wet, or windy it might be!

Date:

Astronomy

Nov. 22, 2012 Rise Set
Actual Time 7:03 AM CST 5:21 PM CST
Civil Twilight 6:36 AM CST 5:48 PM CST
Nautical Twilight 6:06 AM CST 6:18 PM CST
Astronomical Twilight 5:36 AM CST 6:47 PM CST
Moon 1:53 PM CST (11/22) 1:40 AM CST (11/22)
Length of Visible Light 11h 11m
Length of Day
10h 18m
Waxing Gibbous, 71% of the Moon is Illuminated
Nov 22
Waxing Gibbous
Nov 28
Full
Dec 6
Last Quarter
Dec 13
New
Dec 19
First Quarter

Hourly Weather History & Observations

Time (CST) Temp. Dew Point Humidity Pressure Visibility Wind Dir Wind Speed Gust Speed Precip Events Conditions
12:15 AM 53.6 °F 39.2 °F 58% 30.13 in 10.0 mi SE 5.8 mph - N/A   Clear
12:35 AM 53.6 °F 41.0 °F 62% 30.13 in 10.0 mi SSE 8.1 mph - N/A   Clear
12:55 AM 51.8 °F 41.0 °F 67% 30.12 in 10.0 mi SE 8.1 mph - N/A   Clear
1:15 AM 53.6 °F 42.8 °F 67% 30.12 in 10.0 mi SE 8.1 mph - N/A   Clear
1:35 AM 55.4 °F 42.8 °F 63% 30.11 in 10.0 mi SE 8.1 mph - N/A   Clear
1:55 AM 53.6 °F 42.8 °F 67% 30.11 in 10.0 mi SSE 5.8 mph - N/A   Clear
2:15 AM 51.8 °F 42.8 °F 71% 30.12 in 10.0 mi SSE 4.6 mph - N/A   Clear
2:35 AM 53.6 °F 42.8 °F 67% 30.12 in 10.0 mi SSE 4.6 mph - N/A   Clear
2:55 AM 51.8 °F 41.0 °F 67% 30.12 in 10.0 mi SSE 4.6 mph - N/A   Clear
3:15 AM 53.6 °F 42.8 °F 67% 30.12 in 10.0 mi SSE 6.9 mph - N/A   Clear
3:35 AM 53.6 °F 42.8 °F 67% 30.11 in 10.0 mi SSE 6.9 mph - N/A   Clear
3:55 AM 53.6 °F 42.8 °F 67% 30.12 in 10.0 mi SSE 5.8 mph - N/A   Clear
4:15 AM 53.6 °F 42.8 °F 67% 30.12 in 10.0 mi SSE 4.6 mph - N/A   Clear
4:55 AM 51.8 °F 42.8 °F 71% 30.13 in 10.0 mi Calm Calm - N/A   Clear
5:15 AM 51.8 °F 42.8 °F 71% 30.13 in 10.0 mi SSE 3.5 mph - N/A   Clear
5:35 AM 50.0 °F 41.0 °F 71% 30.13 in 10.0 mi SSE 5.8 mph - N/A   Clear
5:55 AM 50.0 °F 42.8 °F 76% 30.13 in 10.0 mi SSE 6.9 mph - N/A   Clear
6:15 AM 50.0 °F 42.8 °F 76% 30.12 in 10.0 mi SE 4.6 mph - N/A   Clear
6:35 AM 50.0 °F 42.8 °F 76% 30.12 in 10.0 mi SE 4.6 mph - N/A   Clear
7:15 AM 50.0 °F 42.8 °F 76% 30.12 in 10.0 mi SE 6.9 mph - N/A   Clear
7:35 AM 50.0 °F 42.8 °F 76% 30.13 in 10.0 mi SSE 6.9 mph - N/A   Clear
7:55 AM 50.0 °F 42.8 °F 76% 30.13 in 10.0 mi SSE 5.8 mph - N/A   Clear
8:15 AM 51.8 °F 44.6 °F 76% 30.13 in 10.0 mi SSE 6.9 mph - N/A   Clear
8:55 AM 55.4 °F 46.4 °F 72% 30.15 in 10.0 mi SSE 6.9 mph - N/A   Clear
9:15 AM 60.8 °F 46.4 °F 59% 30.15 in 10.0 mi South 10.4 mph - N/A   Clear
10:15 AM 64.4 °F 48.2 °F 56% 30.15 in 10.0 mi South 9.2 mph - N/A   Clear
10:35 AM 64.4 °F 48.2 °F 56% 30.15 in 10.0 mi South 9.2 mph - N/A   Clear
10:55 AM 68.0 °F 48.2 °F 49% 30.15 in 10.0 mi SSW 15.0 mph 19.6 mph N/A   Clear
11:15 AM 68.0 °F 50.0 °F 52% 30.13 in 10.0 mi South 12.7 mph - N/A   Scattered Clouds
11:35 AM 68.0 °F 50.0 °F 52% 30.12 in 10.0 mi SSE 5.8 mph - N/A   Scattered Clouds
11:55 AM 71.6 °F 44.6 °F 38% 30.11 in 10.0 mi South 18.4 mph 25.3 mph N/A   Clear
12:15 PM 73.4 °F 42.8 °F 33% 30.10 in 10.0 mi South 20.7 mph 26.5 mph N/A   Clear
12:35 PM 73.4 °F 41.0 °F 31% 30.08 in 10.0 mi South 17.3 mph 21.9 mph N/A   Clear
12:55 PM 73.4 °F 41.0 °F 31% 30.08 in 10.0 mi South 19.6 mph - N/A   Clear
1:15 PM 73.4 °F 39.2 °F 29% 30.06 in 10.0 mi South 21.9 mph 26.5 mph N/A   Clear
1:35 PM 73.4 °F 39.2 °F 29% 30.06 in 10.0 mi South 19.6 mph 27.6 mph N/A   Clear
1:55 PM 73.4 °F 41.0 °F 31% 30.05 in 10.0 mi South 17.3 mph 27.6 mph N/A   Clear
2:15 PM 73.4 °F 41.0 °F 31% 30.04 in 10.0 mi South 18.4 mph 26.5 mph N/A   Clear
2:35 PM 73.4 °F 42.8 °F 33% 30.04 in 10.0 mi SSW 15.0 mph 18.4 mph N/A   Clear
2:55 PM 73.4 °F 42.8 °F 33% 30.04 in 10.0 mi South 18.4 mph 24.2 mph N/A   Clear
3:15 PM 73.4 °F 44.6 °F 36% 30.04 in 10.0 mi South 17.3 mph 28.8 mph N/A   Clear
3:35 PM 71.6 °F 44.6 °F 38% 30.03 in 10.0 mi South 17.3 mph 26.5 mph N/A   Clear
3:55 PM 73.4 °F 44.6 °F 36% 30.04 in 10.0 mi South 21.9 mph 27.6 mph N/A   Clear
4:15 PM 71.6 °F 46.4 °F 41% 30.04 in 10.0 mi South 12.7 mph 18.4 mph N/A   Clear
4:35 PM 71.6 °F 46.4 °F 41% 30.04 in 10.0 mi South 10.4 mph - N/A   Clear
4:55 PM 69.8 °F 46.4 °F 43% 30.04 in 10.0 mi South 11.5 mph - N/A   Clear
5:15 PM 69.8 °F 46.4 °F 43% 30.04 in 10.0 mi SSE 12.7 mph - N/A   Mostly Cloudy
5:35 PM 68.0 °F 50.0 °F 52% 30.04 in 10.0 mi South 9.2 mph - N/A   Overcast
5:55 PM 64.4 °F 51.8 °F 64% 30.05 in 10.0 mi SSE 10.4 mph - N/A   Mostly Cloudy
6:15 PM 64.4 °F 50.0 °F 59% 30.06 in 10.0 mi South 5.8 mph - N/A   Mostly Cloudy
6:35 PM 64.4 °F 51.8 °F 64% 30.07 in 10.0 mi South 5.8 mph - N/A   Mostly Cloudy
6:55 PM 64.4 °F 50.0 °F 59% 30.07 in 10.0 mi SSE 4.6 mph - N/A   Scattered Clouds
7:55 PM 62.6 °F 50.0 °F 63% 30.08 in 10.0 mi SE 4.6 mph - N/A   Scattered Clouds
8:15 PM 60.8 °F 50.0 °F 68% 30.09 in 10.0 mi SE 5.8 mph - N/A   Scattered Clouds
8:35 PM 62.6 °F 50.0 °F 63% 30.09 in 10.0 mi SE 6.9 mph - N/A   Clear
8:55 PM 60.8 °F 50.0 °F 68% 30.09 in 10.0 mi SE 4.6 mph - N/A   Clear
9:15 PM 60.8 °F 48.2 °F 63% 30.09 in 10.0 mi SE 5.8 mph - N/A   Clear
9:35 PM 60.8 °F 50.0 °F 68% 30.10 in 10.0 mi SSE 5.8 mph - N/A   Clear
9:55 PM 59.0 °F 48.2 °F 67% 30.10 in 10.0 mi SSE 4.6 mph - N/A   Clear
10:15 PM 59.0 °F 48.2 °F 67% 30.10 in 10.0 mi SSE 5.8 mph - N/A   Clear
10:35 PM 59.0 °F 48.2 °F 67% 30.10 in 10.0 mi SSE 5.8 mph - N/A   Clear
10:55 PM 60.8 °F 50.0 °F 68% 30.10 in 10.0 mi SSE 5.8 mph - N/A   Clear
11:15 PM 60.8 °F 50.0 °F 68% 30.11 in 10.0 mi SSE 5.8 mph - N/A   Clear
11:35 PM 59.0 °F 48.2 °F 67% 30.11 in 10.0 mi SSE 4.6 mph - N/A   Clear
11:55 PM 59.0 °F 48.2 °F 67% 30.11 in 10.0 mi SSE 4.6 mph - N/A   Clear